| time (UTC) | temp C | wind direction | speed KPH | gust KPH | rain 1hr cm | rain 24hr cm | rain mn cm | humidity % | barometer mb |
| 20260505153051 | 18 | 95 | 0.0 | 6.4 | 0.00 | 0.20 | 0.20 | 93 | 1006.2 |
| 20260505152547 | 17 | 131 | 0.0 | 9.7 | 0.00 | 0.20 | 0.20 | 93 | 1006.1 |
| 20260505152048 | 17 | 0 | 3.2 | 9.7 | 0.00 | 0.20 | 0.20 | 93 | 1006.2 |
| 20260505151558 | 17 | 133 | 1.6 | 11.3 | 0.00 | 0.20 | 0.20 | 93 | 1006.3 |
| 20260505151048 | 17 | 0 | 1.6 | 11.3 | 0.00 | 0.20 | 0.20 | 93 | 1006.4 |
| 20260505150548 | 17 | 360 | 0.0 | 6.4 | 0.00 | 0.20 | 0.20 | 93 | 1006.6 |
| 20260505140548 | 17 | 71 | 1.6 | 9.7 | 0.03 | 0.20 | 0.20 | 92 | 1006.7 |
| 20260505130110 | 16 | 46 | 0.0 | 8.0 | 0.13 | 0.18 | 0.18 | 91 | 1006.9 |
| 20260505124600 | 17 | 0 | 1.6 | 6.4 | 0.10 | 0.15 | 0.15 | 91 | 1006.9 |
| 20260505124048 | 17 | 0 | 0.0 | 6.4 | 0.08 | 0.13 | 0.13 | 91 | 1006.7 |
| 20260505123546 | 17 | 0 | 1.6 | 6.4 | 0.08 | 0.13 | 0.13 | 91 | 1006.8 |
| 20260505123048 | 17 | 0 | 0.0 | 4.8 | 0.05 | 0.10 | 0.10 | 90 | 1006.7 |
| 20260505122548 | 17 | 0 | 0.0 | 6.4 | 0.05 | 0.10 | 0.10 | 90 | 1006.6 |
| 20260505122051 | 17 | 0 | 0.0 | 8.0 | 0.05 | 0.10 | 0.10 | 90 | 1006.4 |
| 20260505121552 | 17 | 70 | 1.6 | 8.0 | 0.03 | 0.08 | 0.08 | 90 | 1006.5 |
| 20260505121053 | 17 | 0 | 0.0 | 8.0 | 0.03 | 0.08 | 0.08 | 90 | 1006.5 |
| 20260505120549 | 17 | 0 | 0.0 | 4.8 | 0.00 | 0.05 | 0.05 | 89 | 1006.5 |
| 20260505120108 | 17 | 0 | 0.0 | 4.8 | 0.00 | 0.05 | 0.05 | 89 | 1006.2 |
| 20260505115549 | 17 | 0 | 0.0 | 6.4 | 0.00 | 0.05 | 0.05 | 89 | 1006.2 |
| 20260505115050 | 17 | 0 | 0.0 | 6.4 | 0.00 | 0.05 | 0.05 | 89 | 1006.0 |
| 20260505114552 | 17 | 0 | 0.0 | 4.8 | 0.00 | 0.05 | 0.05 | 88 | 1005.9 |
| 20260505114051 | 17 | 0 | 0.0 | 4.8 | 0.00 | 0.05 | 0.05 | 88 | 1005.9 |
| 20260505113550 | 17 | 0 | 0.0 | 4.8 | 0.00 | 0.05 | 0.05 | 88 | 1005.8 |
| 20260505113054 | 17 | 0 | 0.0 | 4.8 | 0.00 | 0.05 | 0.05 | 88 | 1005.7 |
| 20260505112554 | 17 | 0 | 0.0 | 4.8 | 0.00 | 0.05 | 0.05 | 88 | 1005.7 |
| 20260505112050 | 17 | 0 | 0.0 | 3.2 | 0.00 | 0.05 | 0.05 | 87 | 1005.6 |
| 20260505111550 | 17 | 68 | 0.0 | 4.8 | 0.00 | 0.05 | 0.05 | 87 | 1005.6 |
| 20260505111050 | 17 | 0 | 0.0 | 9.7 | 0.00 | 0.05 | 0.05 | 87 | 1005.5 |
| 20260505110548 | 17 | 0 | 1.6 | 9.7 | 0.00 | 0.05 | 0.05 | 87 | 1005.4 |
| 20260505110106 | 17 | 0 | 0.0 | 11.3 | 0.00 | 0.05 | 0.05 | 87 | 1005.2 |
| 20260505102048 | 17 | 359 | 0.0 | 4.8 | 0.00 | 0.05 | 0.05 | 85 | 1005.1 |
| 20260505101552 | 17 | 54 | 0.0 | 6.4 | 0.00 | 0.05 | 0.05 | 85 | 1005.2 |
| 20260505101052 | 17 | 0 | 0.0 | 6.4 | 0.00 | 0.05 | 0.05 | 85 | 1005.4 |
| 20260505100547 | 17 | 0 | 0.0 | 6.4 | 0.00 | 0.05 | 0.05 | 85 | 1005.4 |
| 20260505100051 | 17 | 0 | 0.0 | 8.0 | 0.00 | 0.05 | 0.05 | 86 | 1005.4 |
| 20260505095550 | 17 | 0 | 0.0 | 8.0 | 0.00 | 0.05 | 0.05 | 85 | 1005.6 |
| 20260505095047 | 17 | 0 | 1.6 | 11.3 | 0.00 | 0.05 | 0.05 | 86 | 1005.8 |
| 20260505094550 | 17 | 335 | 3.2 | 17.7 | 0.00 | 0.05 | 0.05 | 86 | 1005.8 |
| 20260505094048 | 17 | 286 | 3.2 | 17.7 | 0.00 | 0.05 | 0.05 | 86 | 1005.8 |
| 20260505093548 | 17 | 277 | 1.6 | 17.7 | 0.00 | 0.05 | 0.05 | 87 | 1005.8 |
| 20260505093053 | 17 | 0 | 0.0 | 4.8 | 0.00 | 0.05 | 0.05 | 87 | 1004.8 |
| 20260505092550 | 17 | 0 | 0.0 | 4.8 | 0.00 | 0.05 | 0.05 | 86 | 1004.1 |
| 20260505092047 | 17 | 0 | 0.0 | 3.2 | 0.03 | 0.05 | 0.05 | 86 | 1003.9 |
| 20260505091554 | 17 | 0 | 0.0 | 3.2 | 0.03 | 0.05 | 0.05 | 86 | 1004.1 |
| 20260505091050 | 17 | 0 | 0.0 | 4.8 | 0.05 | 0.05 | 0.05 | 86 | 1003.9 |
| 20260505090547 | 16 | 0 | 0.0 | 4.8 | 0.05 | 0.05 | 0.05 | 85 | 1003.6 |
| 20260505090049 | 16 | 88 | 0.0 | 4.8 | 0.05 | 0.05 | 0.05 | 86 | 1003.6 |
| 20260505085548 | 16 | 0 | 0.0 | 6.4 | 0.05 | 0.05 | 0.05 | 86 | 1003.6 |
| 20260505085049 | 16 | 0 | 0.0 | 6.4 | 0.05 | 0.05 | 0.05 | 86 | 1003.6 |
| 20260505084548 | 16 | 155 | 0.0 | 4.8 | 0.05 | 0.05 | 0.05 | 86 | 1003.7 |
| 20260505084048 | 17 | 128 | 0.0 | 3.2 | 0.05 | 0.05 | 0.05 | 86 | 1004.0 |
| 20260505083548 | 17 | 0 | 0.0 | 6.4 | 0.05 | 0.05 | 0.05 | 86 | 1004.5 |
| 20260505083049 | 17 | 0 | 0.0 | 6.4 | 0.05 | 0.05 | 0.05 | 86 | 1004.4 |
| 20260505082548 | 17 | 0 | 0.0 | 3.2 | 0.05 | 0.05 | 0.05 | 86 | 1004.4 |
| 20260505082048 | 17 | 0 | 0.0 | 4.8 | 0.03 | 0.03 | 0.03 | 86 | 1004.4 |
| 20260505081554 | 17 | 0 | 0.0 | 6.4 | 0.03 | 0.03 | 0.03 | 85 | 1004.8 |
| 20260505081049 | 16 | 0 | 0.0 | 9.7 | 0.00 | 0.00 | 0.00 | 84 | 1004.6 |
| 20260505080554 | 16 | 85 | 0.0 | 9.7 | 0.00 | 0.00 | 0.00 | 85 | 1004.9 |
| 20260505080050 | 16 | 360 | 1.6 | 8.0 | 0.00 | 0.00 | 0.00 | 86 | 1004.9 |
| 20260505075554 | 17 | 0 | 0.0 | 3.2 | 0.00 | 0.00 | 0.00 | 86 | 1005.5 |
| 20260505075048 | 17 | 336 | 0.0 | 1.6 | 0.00 | 0.00 | 0.00 | 86 | 1005.5 |
| 20260505074552 | 17 | 0 | 0.0 | 3.2 | 0.00 | 0.00 | 0.00 | 86 | 1005.2 |
| 20260505074050 | 17 | 360 | 0.0 | 6.4 | 0.00 | 0.00 | 0.00 | 85 | 1005.5 |
| 20260505073550 | 17 | 296 | 0.0 | 6.4 | 0.00 | 0.00 | 0.00 | 85 | 1005.2 |
| 20260505073052 | 16 | 77 | 0.0 | 4.8 | 0.00 | 0.00 | 0.00 | 85 | 1005.3 |
| 20260505072551 | 16 | 316 | 0.0 | 1.6 | 0.00 | 0.00 | 0.00 | 84 | 1005.8 |
| 20260505072053 | 16 | 0 | 0.0 | 3.2 | 0.00 | 0.00 | 0.00 | 84 | 1005.9 |
| 20260505071554 | 16 | 0 | 0.0 | 3.2 | 0.00 | 0.00 | 0.00 | 84 | 1005.7 |
| 20260505071050 | 16 | 0 | 0.0 | 3.2 | 0.00 | 0.00 | 0.00 | 85 | 1005.3 |
| 20260505070554 | 16 | 0 | 0.0 | 0.0 | 0.00 | 0.00 | 0.00 | 85 | 1005.7 |
| 20260505070056 | 16 | 0 | 0.0 | 3.2 | 0.00 | 0.00 | 0.00 | 85 | 1006.0 |
| 20260505065548 | 16 | 0 | 0.0 | 3.2 | 0.00 | 0.00 | 0.00 | 85 | 1005.9 |
| 20260505065051 | 16 | 0 | 0.0 | 1.6 | 0.00 | 0.00 | 0.00 | 85 | 1005.9 |
| 20260505064556 | 16 | 0 | 0.0 | 1.6 | 0.00 | 0.00 | 0.00 | 85 | 1005.9 |
| 20260505064051 | 16 | 0 | 0.0 | 1.6 | 0.00 | 0.00 | 0.00 | 86 | 1006.1 |
| 20260505063548 | 16 | 0 | 0.0 | 0.0 | 0.00 | 0.00 | 0.00 | 86 | 1006.1 |
| 20260505063052 | 16 | 0 | 0.0 | 0.0 | 0.00 | 0.00 | 0.00 | 86 | 1006.2 |
| 20260505062549 | 16 | 0 | 0.0 | 0.0 | 0.00 | 0.00 | 0.00 | 86 | 1006.3 |
| 20260505062051 | 16 | 0 | 0.0 | 0.0 | 0.00 | 0.00 | 0.00 | 86 | 1006.7 |
| 20260505061552 | 16 | 0 | 0.0 | 0.0 | 0.00 | 0.00 | 0.00 | 86 | 1006.8 |
| 20260505061047 | 16 | 0 | 0.0 | 0.0 | 0.00 | 0.00 | 0.00 | 86 | 1007.0 |
| 20260505060550 | 16 | 0 | 0.0 | 0.0 | 0.00 | 0.00 | 0.00 | 87 | 1007.1 |
| 20260505060053 | 16 | 0 | 0.0 | 0.0 | 0.00 | 0.00 | 0.00 | 86 | 1007.2 |
| 20260505055548 | 16 | 0 | 0.0 | 0.0 | 0.00 | 0.00 | 0.00 | 86 | 1007.3 |
| 20260505055047 | 15 | 0 | 0.0 | 0.0 | 0.00 | 0.00 | 0.00 | 86 | 1007.2 |
| 20260505054556 | 15 | 0 | 0.0 | 0.0 | 0.00 | 0.00 | 0.00 | 86 | 1007.2 |
| 20260505054048 | 15 | 0 | 0.0 | 0.0 | 0.00 | 0.00 | 0.00 | 87 | 1007.1 |
| 20260505053548 | 15 | 0 | 0.0 | 0.0 | 0.00 | 0.00 | 0.00 | 87 | 1007.1 |
| 20260505053101 | 15 | 0 | 0.0 | 1.6 | 0.00 | 0.00 | 0.00 | 87 | 1007.1 |
| 20260505052548 | 15 | 0 | 0.0 | 1.6 | 0.00 | 0.00 | 0.00 | 87 | 1007.3 |
| 20260505052051 | 15 | 0 | 0.0 | 0.0 | 0.00 | 0.00 | 0.00 | 87 | 1007.1 |
| 20260505051554 | 15 | 0 | 0.0 | 0.0 | 0.00 | 0.00 | 0.00 | 87 | 1007.0 |
| 20260505051051 | 15 | 0 | 0.0 | 0.0 | 0.00 | 0.00 | 0.00 | 87 | 1007.1 |
| 20260505050547 | 15 | 0 | 0.0 | 0.0 | 0.00 | 0.00 | 0.00 | 86 | 1007.2 |
| 20260505041554 | 16 | 0 | 0.0 | 0.0 | 0.00 | 0.00 | 0.00 | 82 | 1007.5 |
| 20260505041048 | 16 | 0 | 0.0 | 0.0 | 0.00 | 0.00 | 0.00 | 81 | 1007.6 |
| 20260505040547 | 16 | 0 | 0.0 | 0.0 | 0.00 | 0.00 | 0.00 | 81 | 1007.6 |
| 20260505040054 | 16 | 0 | 0.0 | 0.0 | 0.00 | 0.00 | 0.00 | 80 | 1007.6 |
| 20260505035547 | 16 | 0 | 0.0 | 0.0 | 0.00 | 0.00 | 0.00 | 80 | 1007.7 |
| 20260505035047 | 16 | 0 | 0.0 | 0.0 | 0.00 | 0.00 | 0.00 | 80 | 1007.6 |
| 20260505034550 | 17 | 0 | 0.0 | 0.0 | 0.00 | 0.00 | 0.00 | 79 | 1007.7 |
| 20260505034047 | 17 | 0 | 0.0 | 0.0 | 0.00 | 0.00 | 0.00 | 79 | 1007.7 |
| 20260505033547 | 17 | 0 | 0.0 | 0.0 | 0.00 | 0.00 | 0.00 | 78 | 1007.8 |
| 20260505033051 | 17 | 0 | 0.0 | 0.0 | 0.00 | 0.00 | 0.00 | 77 | 1007.9 |
| 20260505032547 | 17 | 0 | 0.0 | 0.0 | 0.00 | 0.00 | 0.00 | 76 | 1007.9 |
| 20260505032046 | 17 | 0 | 0.0 | 0.0 | 0.00 | 0.00 | 0.00 | 76 | 1007.9 |
| 20260505031552 | 17 | 0 | 0.0 | 0.0 | 0.00 | 0.00 | 0.00 | 76 | 1007.8 |
| 20260505031046 | 17 | 0 | 0.0 | 0.0 | 0.00 | 0.00 | 0.00 | 75 | 1007.9 |
| 20260505030548 | 18 | 0 | 0.0 | 0.0 | 0.00 | 0.00 | 0.00 | 74 | 1007.8 |
| 20260505030050 | 18 | 0 | 0.0 | 0.0 | 0.00 | 0.00 | 0.00 | 74 | 1007.8 |
| 20260505025550 | 18 | 0 | 0.0 | 0.0 | 0.00 | 0.00 | 0.00 | 74 | 1007.9 |
| 20260505025049 | 18 | 0 | 0.0 | 0.0 | 0.00 | 0.00 | 0.00 | 73 | 1007.9 |
| 20260505024552 | 18 | 0 | 0.0 | 0.0 | 0.00 | 0.00 | 0.00 | 73 | 1007.9 |
| 20260505024049 | 18 | 0 | 0.0 | 0.0 | 0.00 | 0.00 | 0.00 | 73 | 1007.8 |
| 20260505023550 | 18 | 0 | 0.0 | 0.0 | 0.00 | 0.00 | 0.00 | 72 | 1007.8 |
| 20260505023057 | 18 | 0 | 0.0 | 0.0 | 0.00 | 0.00 | 0.00 | 73 | 1007.6 |
| 20260505022550 | 19 | 0 | 0.0 | 0.0 | 0.00 | 0.00 | 0.00 | 72 | 1007.5 |
| 20260505022050 | 19 | 0 | 0.0 | 0.0 | 0.00 | 0.00 | 0.00 | 72 | 1007.5 |
| 20260505021549 | 19 | 0 | 0.0 | 0.0 | 0.00 | 0.00 | 0.00 | 71 | 1007.3 |
| 20260505021050 | 20 | 0 | 0.0 | 0.0 | 0.00 | 0.00 | 0.00 | 71 | 1007.3 |
| 20260505020550 | 20 | 0 | 0.0 | 0.0 | 0.00 | 0.00 | 0.00 | 70 | 1007.2 |
| 20260505020055 | 20 | 0 | 0.0 | 0.0 | 0.00 | 0.00 | 0.00 | 70 | 1007.0 |
| 20260505015548 | 20 | 0 | 0.0 | 0.0 | 0.00 | 0.00 | 0.00 | 68 | 1007.1 |
| 20260505015047 | 20 | 0 | 0.0 | 1.6 | 0.00 | 0.00 | 0.00 | 68 | 1007.0 |
| 20260505014550 | 20 | 0 | 0.0 | 1.6 | 0.00 | 0.00 | 0.00 | 67 | 1006.9 |
| 20260505014048 | 21 | 0 | 0.0 | 0.0 | 0.00 | 0.00 | 0.00 | 66 | 1006.8 |
| 20260505013549 | 21 | 0 | 0.0 | 0.0 | 0.00 | 0.00 | 0.00 | 66 | 1006.9 |
| 20260505013051 | 21 | 0 | 0.0 | 0.0 | 0.00 | 0.00 | 0.00 | 65 | 1006.7 |
| 20260505012547 | 21 | 0 | 0.0 | 0.0 | 0.00 | 0.00 | 0.00 | 63 | 1006.7 |
| 20260505012051 | 21 | 0 | 0.0 | 0.0 | 0.00 | 0.00 | 0.00 | 63 | 1006.7 |
| 20260505011554 | 22 | 0 | 0.0 | 0.0 | 0.00 | 0.00 | 0.00 | 62 | 1006.7 |
| 20260505011052 | 22 | 0 | 0.0 | 0.0 | 0.00 | 0.00 | 0.00 | 62 | 1006.5 |
| 20260505010549 | 22 | 0 | 0.0 | 1.6 | 0.00 | 0.00 | 0.00 | 61 | 1006.5 |
| 20260505010100 | 22 | 0 | 0.0 | 1.6 | 0.00 | 0.00 | 0.00 | 61 | 1006.6 |
| 20260505005549 | 22 | 0 | 0.0 | 4.8 | 0.00 | 0.00 | 0.00 | 60 | 1006.5 |
| 20260505005048 | 22 | 0 | 0.0 | 8.0 | 0.00 | 0.00 | 0.00 | 59 | 1006.5 |
| 20260505004552 | 22 | 119 | 0.0 | 8.0 | 0.00 | 0.00 | 0.00 | 59 | 1006.5 |
| 20260505004050 | 22 | 0 | 0.0 | 8.0 | 0.00 | 0.00 | 0.00 | 58 | 1006.6 |
| 20260505003552 | 23 | 0 | 0.0 | 6.4 | 0.00 | 0.00 | 0.00 | 59 | 1006.4 |
| 20260505003057 | 23 | 0 | 0.0 | 6.4 | 0.00 | 0.00 | 0.00 | 58 | 1006.5 |
| 20260505002550 | 23 | 0 | 0.0 | 4.8 | 0.00 | 0.00 | 0.00 | 58 | 1006.3 |
| 20260505002050 | 23 | 0 | 0.0 | 4.8 | 0.00 | 0.00 | 0.00 | 58 | 1006.4 |
| 20260505001553 | 23 | 190 | 0.0 | 4.8 | 0.00 | 0.00 | 0.00 | 58 | 1006.5 |
| 20260505001050 | 23 | 0 | 0.0 | 4.8 | 0.00 | 0.00 | 0.00 | 59 | 1006.5 |
| 20260505000549 | 23 | 0 | 0.0 | 6.4 | 0.00 | 0.00 | 0.00 | 57 | 1006.5 |
| 20260505000105 | 24 | 0 | 0.0 | 6.4 | 0.00 | 0.00 | 0.00 | 56 | 1006.3 |
| 20260504235551 | 24 | 0 | 0.0 | 6.4 | 0.00 | 0.00 | 0.00 | 56 | 1006.2 |
| 20260504235047 | 24 | 0 | 0.0 | 6.4 | 0.00 | 0.00 | 0.00 | 55 | 1006.2 |
| 20260504234552 | 24 | 0 | 0.0 | 4.8 | 0.00 | 0.00 | 0.00 | 55 | 1006.4 |
| 20260504234048 | 25 | 0 | 0.0 | 6.4 | 0.00 | 0.00 | 0.00 | 55 | 1006.5 |
| 20260504233547 | 25 | 0 | 1.6 | 6.4 | 0.00 | 0.00 | 0.00 | 55 | 1006.3 |
| 20260504233054 | 25 | 0 | 0.0 | 3.2 | 0.00 | 0.00 | 0.00 | 55 | 1006.3 |
| 20260504232550 | 25 | 0 | 0.0 | 8.0 | 0.00 | 0.00 | 0.00 | 55 | 1006.4 |
| 20260504232052 | 25 | 0 | 0.0 | 8.0 | 0.00 | 0.00 | 0.00 | 56 | 1006.5 |
| 20260504231552 | 25 | 156 | 1.6 | 11.3 | 0.00 | 0.00 | 0.00 | 52 | 1006.6 |
| 20260504231048 | 25 | 162 | 1.6 | 11.3 | 0.00 | 0.00 | 0.00 | 52 | 1006.5 |
| 20260504230551 | 25 | 188 | 1.6 | 9.7 | 0.00 | 0.00 | 0.00 | 51 | 1006.5 |
| 20260504230055 | 26 | 120 | 1.6 | 8.0 | 0.00 | 0.00 | 0.00 | 50 | 1006.6 |
| 20260504225548 | 26 | 121 | 1.6 | 8.0 | 0.00 | 0.00 | 0.00 | 51 | 1006.5 |
| 20260504225050 | 26 | 171 | 1.6 | 11.3 | 0.00 | 0.00 | 0.00 | 49 | 1006.6 |
| 20260504224554 | 26 | 141 | 1.6 | 12.9 | 0.00 | 0.00 | 0.00 | 49 | 1006.6 |
| 20260504224050 | 26 | 0 | 1.6 | 12.9 | 0.00 | 0.00 | 0.00 | 51 | 1006.6 |
| 20260504223548 | 26 | 157 | 0.0 | 8.0 | 0.00 | 0.00 | 0.00 | 49 | 1006.6 |
| 20260504223048 | 26 | 0 | 1.6 | 12.9 | 0.00 | 0.00 | 0.00 | 49 | 1006.7 |
| 20260504222549 | 27 | 179 | 1.6 | 12.9 | 0.00 | 0.00 | 0.00 | 47 | 1006.7 |
| 20260504222048 | 27 | 0 | 3.2 | 12.9 | 0.00 | 0.00 | 0.00 | 48 | 1006.8 |
| 20260504221551 | 27 | 330 | 1.6 | 8.0 | 0.00 | 0.00 | 0.00 | 48 | 1006.8 |
| 20260504221049 | 27 | 0 | 3.2 | 11.3 | 0.00 | 0.00 | 0.00 | 46 | 1006.9 |
| 20260504220548 | 27 | 146 | 1.6 | 11.3 | 0.00 | 0.00 | 0.00 | 46 | 1006.9 |
| 20260504220112 | 27 | 155 | 3.2 | 12.9 | 0.00 | 0.00 | 0.00 | 45 | 1006.8 |
| 20260504215549 | 27 | 98 | 1.6 | 12.9 | 0.00 | 0.00 | 0.00 | 45 | 1007.0 |
| 20260504215049 | 27 | 228 | 1.6 | 12.9 | 0.00 | 0.00 | 0.00 | 48 | 1007.0 |
| 20260504214555 | 27 | 150 | 3.2 | 16.1 | 0.00 | 0.00 | 0.00 | 45 | 1007.0 |
| 20260504214048 | 28 | 149 | 4.8 | 16.1 | 0.00 | 0.00 | 0.00 | 45 | 1007.2 |
| 20260504213548 | 28 | 174 | 1.6 | 16.1 | 0.00 | 0.00 | 0.00 | 45 | 1007.1 |
| 20260504213054 | 28 | 0 | 1.6 | 16.1 | 0.00 | 0.00 | 0.00 | 45 | 1007.2 |
| 20260504212549 | 28 | 0 | 4.8 | 16.1 | 0.00 | 0.00 | 0.00 | 45 | 1007.3 |
| 20260504212051 | 28 | 0 | 3.2 | 12.9 | 0.00 | 0.00 | 0.00 | 44 | 1007.3 |
| 20260504211555 | 28 | 174 | 4.8 | 12.9 | 0.00 | 0.00 | 0.00 | 43 | 1007.4 |
| 20260504211047 | 28 | 138 | 3.2 | 9.7 | 0.00 | 0.00 | 0.00 | 45 | 1007.2 |
| 20260504210548 | 28 | 203 | 3.2 | 20.9 | 0.00 | 0.00 | 0.00 | 43 | 1007.4 |
| 20260504210052 | 28 | 115 | 3.2 | 20.9 | 0.00 | 0.00 | 0.00 | 45 | 1007.6 |
| 20260504205552 | 28 | 210 | 3.2 | 14.5 | 0.00 | 0.00 | 0.00 | 44 | 1007.7 |
| 20260504205110 | 28 | 139 | 3.2 | 11.3 | 0.00 | 0.00 | 0.00 | 43 | 1007.8 |
| 20260504204552 | 28 | 226 | 1.6 | 11.3 | 0.00 | 0.00 | 0.00 | 46 | 1007.9 |
| 20260504204048 | 28 | 231 | 3.2 | 11.3 | 0.00 | 0.00 | 0.00 | 46 | 1007.9 |
| 20260504203548 | 28 | 162 | 3.2 | 12.9 | 0.00 | 0.00 | 0.00 | 44 | 1008.0 |
| 20260504203055 | 28 | 89 | 3.2 | 16.1 | 0.00 | 0.00 | 0.00 | 45 | 1008.1 |
| 20260504202549 | 28 | 231 | 3.2 | 16.1 | 0.00 | 0.00 | 0.00 | 44 | 1008.1 |
| 20260504202049 | 28 | 197 | 4.8 | 12.9 | 0.00 | 0.00 | 0.00 | 46 | 1008.1 |
| 20260504201553 | 28 | 143 | 4.8 | 12.9 | 0.00 | 0.00 | 0.00 | 44 | 1008.2 |
| 20260504201049 | 28 | 181 | 4.8 | 19.3 | 0.00 | 0.00 | 0.00 | 43 | 1008.3 |
| 20260504200548 | 28 | 186 | 4.8 | 19.3 | 0.00 | 0.00 | 0.00 | 46 | 1008.6 |
| 20260504200057 | 28 | 120 | 3.2 | 16.1 | 0.00 | 0.00 | 0.00 | 44 | 1008.7 |
| 20260504195547 | 28 | 226 | 3.2 | 16.1 | 0.00 | 0.00 | 0.00 | 45 | 1008.8 |
| 20260504195050 | 28 | 248 | 1.6 | 14.5 | 0.00 | 0.00 | 0.00 | 50 | 1008.8 |
| 20260504194552 | 28 | 272 | 1.6 | 16.1 | 0.00 | 0.00 | 0.00 | 49 | 1008.9 |
| 20260504194048 | 27 | 0 | 6.4 | 16.1 | 0.00 | 0.00 | 0.00 | 42 | 1009.2 |
| 20260504193549 | 28 | 156 | 3.2 | 16.1 | 0.00 | 0.00 | 0.00 | 45 | 1009.2 |
| 20260504193051 | 28 | 146 | 3.2 | 22.5 | 0.00 | 0.00 | 0.00 | 45 | 1009.3 |
| 20260504192547 | 28 | 206 | 6.4 | 22.5 | 0.00 | 0.00 | 0.00 | 43 | 1009.4 |
| 20260504192048 | 28 | 151 | 4.8 | 11.3 | 0.00 | 0.00 | 0.00 | 43 | 1009.4 |
| 20260504191558 | 28 | 225 | 1.6 | 11.3 | 0.00 | 0.00 | 0.00 | 49 | 1009.5 |
| 20260504191048 | 28 | 207 | 4.8 | 11.3 | 0.00 | 0.00 | 0.00 | 44 | 1009.5 |
| 20260504190549 | 28 | 87 | 3.2 | 11.3 | 0.00 | 0.00 | 0.00 | 47 | 1009.5 |
| 20260504190108 | 28 | 186 | 3.2 | 19.3 | 0.00 | 0.00 | 0.00 | 43 | 1009.6 |
| 20260504185548 | 27 | 316 | 4.8 | 19.3 | 0.00 | 0.00 | 0.00 | 43 | 1009.7 |
| 20260504185048 | 28 | 220 | 4.8 | 19.3 | 0.00 | 0.00 | 0.00 | 44 | 1009.7 |
| 20260504184614 | 27 | 253 | 1.6 | 14.5 | 0.00 | 0.00 | 0.00 | 46 | 1009.7 |
| 20260504184048 | 27 | 0 | 3.2 | 14.5 | 0.00 | 0.00 | 0.00 | 46 | 1009.9 |
| 20260504183549 | 27 | 212 | 3.2 | 12.9 | 0.00 | 0.00 | 0.00 | 47 | 1010.0 |
| 20260504183054 | 27 | 160 | 3.2 | 12.9 | 0.00 | 0.00 | 0.00 | 47 | 1010.0 |
| 20260504182549 | 27 | 226 | 3.2 | 12.9 | 0.00 | 0.00 | 0.00 | 43 | 1010.0 |
| 20260504182048 | 27 | 167 | 3.2 | 17.7 | 0.00 | 0.00 | 0.00 | 48 | 1010.1 |
| 20260504181555 | 27 | 205 | 6.4 | 20.9 | 0.00 | 0.00 | 0.00 | 46 | 1010.1 |
| 20260504181049 | 27 | 96 | 8.0 | 20.9 | 0.00 | 0.00 | 0.00 | 46 | 1010.2 |
| 20260504180549 | 27 | 89 | 4.8 | 20.9 | 0.00 | 0.00 | 0.00 | 48 | 1010.3 |
| 20260504180053 | 27 | 162 | 4.8 | 20.9 | 0.00 | 0.00 | 0.00 | 44 | 1010.3 |
| 20260504175548 | 27 | 193 | 3.2 | 16.1 | 0.00 | 0.00 | 0.00 | 46 | 1010.3 |
| 20260504175048 | 27 | 109 | 3.2 | 16.1 | 0.00 | 0.00 | 0.00 | 44 | 1010.3 |
| 20260504174606 | 26 | 0 | 3.2 | 17.7 | 0.00 | 0.00 | 0.00 | 45 | 1010.3 |
| 20260504174050 | 26 | 160 | 4.8 | 24.1 | 0.00 | 0.00 | 0.00 | 48 | 1010.3 |
| 20260504173547 | 26 | 155 | 8.0 | 24.1 | 0.00 | 0.00 | 0.00 | 46 | 1010.6 |
| 20260504173053 | 26 | 324 | 4.8 | 24.1 | 0.00 | 0.00 | 0.00 | 45 | 1010.6 |
| 20260504172548 | 26 | 105 | 6.4 | 24.1 | 0.00 | 0.00 | 0.00 | 48 | 1010.6 |
| 20260504172049 | 26 | 212 | 6.4 | 22.5 | 0.00 | 0.00 | 0.00 | 45 | 1010.6 |
| 20260504171553 | 26 | 191 | 6.4 | 22.5 | 0.00 | 0.00 | 0.00 | 44 | 1010.7 |
| 20260504171048 | 26 | 181 | 1.6 | 17.7 | 0.00 | 0.00 | 0.00 | 48 | 1010.8 |
| 20260504170550 | 26 | 172 | 6.4 | 17.7 | 0.00 | 0.00 | 0.00 | 47 | 1010.9 |